KF4MSV Weather Reports


Display with metric or nautical units.
time (UTC)temp
F
wind
direction
speed
MPH
gust
MPH
rain 1hr
in
rain 24hr
in
rain mn
in
humidity
%
barometer
mb
20260906075003 67 224 0.0 0.0 0.00 0.14 0.00 98 951.4
20260906074503 67 224 0.0 0.0 0.00 0.14 0.00 98 951.4
20260906073503 68 224 0.0 0.0 0.00 0.14 0.00 98 951.8
20260906072003 68 224 0.0 0.0 0.00 0.14 0.00 98 951.9
20260906071503 68 224 0.0 0.0 0.00 0.14 0.00 98 951.9
20260906070004 68 224 0.0 0.0 0.00 0.14 0.00 97 951.6
20260906064004 68 224 0.0 0.0 0.00 0.14 0.00 97 951.6
20260906061004 68 224 0.0 0.0 0.00 0.14 0.00 97 952.0
20260906060504 68 224 0.0 0.0 0.00 0.14 0.00 97 952.2
20260906054503 69 224 0.0 0.0 0.00 0.14 0.00 97 952.4
20260906054005 69 224 0.0 0.0 0.00 0.14 0.00 97 952.4
20260906053504 69 224 0.0 0.0 0.00 0.14 0.00 97 952.3
20260906052503 69 224 0.0 0.0 0.00 0.14 0.00 97 952.3
20260906051004 69 224 0.0 0.0 0.00 0.14 0.00 97 952.5
20260906050003 69 224 0.0 0.0 0.00 0.14 0.00 96 952.6
20260906045504 69 224 0.0 0.0 0.00 0.14 0.00 96 952.6
20260906044003 69 224 0.0 0.0 0.00 0.14 0.00 96 952.2
20260906043503 69 224 0.0 0.0 0.00 0.14 0.00 96 952.4
20260906043004 69 224 0.0 0.0 0.00 0.14 0.00 96 952.4
20260906042504 69 224 0.0 0.0 0.00 0.14 0.00 96 952.4
20260906041503 69 224 0.0 0.0 0.00 0.14 0.00 96 952.2
20260906041004 69 224 0.0 0.0 0.00 0.14 0.00 96 952.2
20260906040504 70 224 0.0 0.0 0.00 0.14 0.00 96 952.6
20260906040004 70 224 0.0 0.0 0.00 0.14 0.00 95 952.6
20260906035004 70 224 0.0 0.0 0.00 0.14 0.14 95 952.5
20260906034504 70 224 0.0 0.0 0.00 0.14 0.14 95 952.5
20260906022503 71 224 0.0 0.0 0.00 0.14 0.14 93 952.5
20260906022003 71 224 0.0 0.0 0.00 0.14 0.14 93 952.6
20260906014503 72 224 0.0 0.0 0.00 0.14 0.14 91 952.5
20260906013003 73 224 0.0 0.0 0.00 0.14 0.14 90 952.2
20260906012003 73 224 0.0 0.0 0.00 0.14 0.14 88 952.1
20260906011503 73 224 0.0 0.0 0.00 0.14 0.14 89 952.1
20260906011002 73 224 0.0 0.0 0.00 0.14 0.14 88 952.1
20260906010503 73 224 0.0 0.0 0.00 0.14 0.14 89 951.9
20260906004503 74 224 0.0 0.0 0.00 0.14 0.14 89 952.0
20260906004003 74 224 0.0 0.0 0.00 0.14 0.14 88 952.0
20260906003003 74 224 0.0 0.0 0.00 0.14 0.14 87 951.9
20260906001003 76 224 0.0 1.0 0.00 0.14 0.14 83 951.8
20260906000503 76 224 0.0 1.0 0.00 0.14 0.14 83 951.7
20260906000003 76 224 0.0 0.0 0.00 0.14 0.14 82 951.7
20260905235503 77 224 0.0 0.0 0.00 0.14 0.14 81 951.7
20260905234503 78 224 0.0 0.0 0.00 0.14 0.14 80 951.5
20260905233503 78 224 0.0 1.0 0.00 0.14 0.14 80 951.5
20260905233003 78 224 0.0 1.0 0.00 0.14 0.14 78 951.5
20260905232503 79 224 0.0 0.0 0.00 0.14 0.14 77 951.5
20260905231503 79 224 0.0 0.0 0.00 0.14 0.14 77 951.5
20260905230504 80 224 0.0 0.0 0.00 0.14 0.14 77 951.9
20260905225003 80 224 0.0 1.0 0.00 0.14 0.14 77 952.1
20260905224004 81 224 1.0 2.0 0.00 0.14 0.14 74 952.1
20260905221504 81 192 1.0 2.0 0.02 0.14 0.14 70 952.1
20260905221003 82 244 1.0 3.0 0.02 0.14 0.14 72 952.1
20260905214504 83 234 0.0 3.0 0.02 0.14 0.14 67 952.0
20260905213501 83 198 2.0 6.0 0.02 0.14 0.14 67 952.0
20260905213001 83 285 2.0 6.0 0.02 0.14 0.14 66 952.0
20260905212501 83 252 2.0 6.0 0.02 0.14 0.14 67 952.0
20260905212002 83 236 0.0 5.0 0.00 0.12 0.12 69 952.0
20260905210501 82 206 1.0 5.0 0.00 0.12 0.12 69 952.0
20260905210002 81 206 2.0 5.0 0.00 0.12 0.12 70 952.0
20260905204502 81 245 2.0 6.0 0.00 0.12 0.12 69 951.9
20260905203501 80 252 2.0 5.0 0.00 0.12 0.12 71 952.0
20260905203004 80 224 2.0 5.0 0.00 0.12 0.12 73 952.0
20260905202503 79 335 2.0 5.0 0.00 0.12 0.12 74 952.0
20260905201001 78 318 3.0 7.0 0.00 0.12 0.12 74 951.7
20260905194501 77 252 3.0 9.0 0.00 0.12 0.12 78 952.2
20260905194001 77 266 1.0 9.0 0.00 0.12 0.12 77 952.2
20260905193502 77 224 1.0 8.0 0.00 0.12 0.12 80 952.4
20260905193002 76 267 0.0 6.0 0.00 0.12 0.12 79 952.4
20260905191502 74 258 2.0 6.0 0.00 0.12 0.12 87 952.5
20260905191002 74 262 2.0 6.0 0.00 0.12 0.12 87 952.5
20260905190002 73 193 0.0 5.0 0.00 0.12 0.12 93 952.9
20260905185002 72 197 2.0 5.0 0.00 0.12 0.12 96 953.1
20260905184502 71 249 2.0 5.0 0.00 0.12 0.12 97 953.1
20260905183002 70 283 1.0 5.0 0.00 0.12 0.12 98 953.6
20260905182002 69 297 2.0 3.0 0.00 0.12 0.12 97 954.0
20260905181502 69 300 2.0 5.0 0.00 0.12 0.12 97 954.0
20260905181002 69 251 1.0 5.0 0.00 0.12 0.12 97 954.0
20260905174501 69 249 0.0 5.0 0.01 0.12 0.12 97 954.9
20260905174003 69 270 0.0 5.0 0.02 0.12 0.12 97 954.9
20260905173002 69 297 0.0 0.0 0.02 0.12 0.12 97 954.9
20260905171502 69 299 0.0 2.0 0.02 0.12 0.12 96 955.1
20260905171003 69 251 0.0 0.0 0.02 0.12 0.12 96 955.1
20260905170502 69 251 0.0 0.0 0.02 0.12 0.12 96 955.2
20260905165502 69 244 0.0 2.0 0.07 0.12 0.12 95 955.2
20260905164502 69 5 1.0 3.0 0.11 0.11 0.11 94 954.9
20260905163002 70 328 2.0 5.0 0.10 0.10 0.10 93 955.6
20260905162002 71 194 1.0 5.0 0.10 0.10 0.10 89 955.1
20260905161002 76 92 5.0 2.0 0.10 0.10 0.10 81 955.1
20260905160002 76 92 5.0 13.0 0.10 0.10 0.10 81 956.1
20260905154502 80 16 0.0 5.0 0.00 0.00 0.00 81 954.9
20260905153002 81 196 0.0 2.0 0.00 0.00 0.00 78 954.8
20260905151503 80 245 0.0 3.0 0.00 0.00 0.00 79 954.8
20260905151002 80 214 0.0 3.0 0.00 0.00 0.00 80 954.8
20260905145502 79 207 0.0 5.0 0.00 0.00 0.00 82 954.3
20260905144502 78 197 2.0 3.0 0.00 0.00 0.00 83 954.2
20260905143003 77 196 1.0 6.0 0.00 0.00 0.00 87 954.2
20260905141503 74 252 0.0 3.0 0.00 0.00 0.00 92 954.3
20260905141003 74 252 0.0 3.0 0.00 0.00 0.00 92 954.3
20260905134502 72 172 0.0 2.0 0.00 0.00 0.00 96 954.4
20260905132003 70 178 0.0 0.0 0.00 0.00 0.00 99 954.5
20260905130003 69 133 0.0 0.0 0.00 0.00 0.00 99 954.7
20260905124503 68 132 0.0 0.0 0.00 0.00 0.00 99 954.7
20260905123003 68 132 0.0 0.0 0.00 0.00 0.00 98 954.7
20260905122503 67 132 0.0 0.0 0.00 0.00 0.00 98 954.7
20260905121503 67 132 0.0 0.0 0.00 0.00 0.00 98 954.5
20260905120002 67 132 0.0 0.0 0.00 0.00 0.00 98 954.1
20260905114503 67 132 0.0 0.0 0.00 0.00 0.00 98 954.3
20260905114002 67 132 0.0 0.0 0.00 0.00 0.00 98 954.3
20260905112503 67 132 0.0 0.0 0.00 0.00 0.00 98 954.0
20260905111003 67 132 0.0 0.0 0.00 0.00 0.00 97 954.1
20260905110003 67 132 0.0 0.0 0.00 0.00 0.00 97 953.9
20260905105003 67 132 0.0 0.0 0.00 0.00 0.00 97 953.8
20260905104003 67 132 0.0 0.0 0.00 0.00 0.00 98 953.8
20260905101003 67 189 0.0 0.0 0.00 0.00 0.00 97 953.6
20260905100502 68 189 0.0 0.0 0.00 0.00 0.00 97 953.7
20260905095503 68 189 0.0 0.0 0.00 0.00 0.00 98 953.7
20260905095003 67 189 0.0 0.0 0.00 0.00 0.00 97 953.7
20260905094503 67 189 0.0 0.0 0.00 0.00 0.00 97 953.7
20260905094002 67 189 0.0 0.0 0.00 0.00 0.00 97 953.7
20260905093503 67 189 0.0 0.0 0.00 0.00 0.00 97 953.5
20260905092503 67 189 0.0 0.0 0.00 0.00 0.00 97 953.5
20260905092003 67 189 0.0 0.0 0.00 0.00 0.00 97 953.4
20260905091003 68 189 0.0 0.0 0.00 0.00 0.00 97 953.4
20260905090503 68 189 0.0 0.0 0.00 0.00 0.00 97 953.3
20260905085504 68 189 0.0 0.0 0.00 0.00 0.00 97 953.3
20260905084504 68 189 0.0 0.0 0.00 0.00 0.00 97 953.3
20260905083503 68 189 0.0 0.0 0.00 0.00 0.00 97 953.3
20260905080503 68 189 0.0 0.0 0.00 0.00 0.00 96 953.7